Location: Spondin
(51.8528°N, 111.6118°W)
Time: 17:44:08
(UTC+00:00)

Vanguard 2 Rocket - Pass Details

Date: 04 June 2022
Orbit: 553 x 3323 km, 32.9° (Epoch: 02 July)

Event Time Altitude Azimuth Distance (km) Brightness Sun altitude
Rises 20:13:02 0° 249° (WSW) 7,038 11.7 59.2°
Reaches altitude 10° 20:17:58 10° 243° (WSW) 6,181 11.7 58.9°
Maximum altitude 20:35:43 41° 183° (S) 4,095 11.7 57.6°
Drops below altitude 10° 20:50:41 10° 121° (ESE) 5,259 10.9 56.3°
Sets 20:54:28 0° 114° (ESE) 5,943 11.0 56.0°
